Regional Weather Roundup
Issued by NWS

Home | Current Version | Previous Version | Text Only | Print | Product List | Glossary Off
Versions: 1 2 3 4 5 6 7 8 9 10 11 12 13 14 15 16 17 18 19 20 21 22 23 24 25 26 27 28 29 30 31 32 33 34 35 36 37 38 39 40 41 42 43 44 45 46 47 48 49 50

000
ASUS43 KTOP 240008
RWRKS

WEATHER ROUNDUP FOR KANSAS
NATIONAL WEATHER SERVICE GOODLAND KS
700 PM CDT MON OCT 23 2017

NOTE:  "FAIR" INDICATES FEW OR NO CLOUDS BELOW 12,000 FEET WITH NO
SIGNIFICANT WEATHER AND/OR OBSTRUCTIONS TO VISIBILITY.

KSZ001>006-013>018-027>032-041>047-240100-
NORTHWEST KANSAS

CITY           SKY/WX    TMP DP  RH WIND       PRES   REMARKS
GOODLAND       PTCLDY    54  16  22 N20G28    30.35R
6HR MIN TEMP:  54; 6HR MAX TEMP:  60;

HAYS           CLEAR     58  21  24 N17       30.25R
HILL CITY      CLEAR     58  20  22 N14       30.27R
6HR MIN TEMP:  58; 6HR MAX TEMP:  67;

RUSSELL        CLEAR     60  20  21 NW20G30   30.22R
6HR MIN TEMP:  60; 6HR MAX TEMP:  68; 6HR PCP: TRACE;

$$

KSZ061>065-074>080-084>089-240100-
SOUTHWEST KANSAS

CITY           SKY/WX    TMP DP  RH WIND       PRES   REMARKS
DODGE CITY     CLEAR     59  16  18 N15G26    30.28R
6HR MIN TEMP:  59; 6HR MAX TEMP:  68;

ELKHART          N/A     55  24  30 N7          N/A
GARDEN CITY    CLEAR     56  18  22 N13       30.32R
6HR MIN TEMP:  56; 6HR MAX TEMP:  66;

GREAT BEND     CLEAR     59  21  23 N14G23    30.23R
LIBERAL        CLEAR     57  21  24 N14       30.33R
PRATT          CLEAR     59  19  21 N13       30.23R
6HR MIN TEMP:  59; 6HR MAX TEMP:  69;

$$

KSZ066>073-081>083-090>101-240100-
SOUTHEAST KANSAS

CITY           SKY/WX    TMP DP  RH WIND       PRES   REMARKS
CHANUTE        CLEAR     61  34  36 NW12      30.09R
6HR MIN TEMP:  61; 6HR MAX TEMP:  72; 6HR PCP: TRACE;

COFFEYVILLE    CLOUDY    61  35  37 NW9       30.09R
6HR MIN TEMP:  61; 6HR MAX TEMP:  73;

HUTCHINSON     CLEAR     62  24  23 NW15      30.18R
6HR MIN TEMP:  61; 6HR MAX TEMP:  71;

MEDICINE LODGE   N/A     59  26  28 N10       30.21R
NEWTON         CLEAR     60  26  27 NW15      30.16R
PARSONS        CLEAR     54  37  52 W5        30.10R
6HR MIN TEMP:  54; 6HR MAX TEMP:  73; 6HR PCP: TRACE;

WICHITA INTL   PTCLDY    61  29  29 NW12      30.17R
6HR MIN TEMP:  61; 6HR MAX TEMP:  73;

WICHITA JABRA  CLEAR     60  28  29 NW12      30.16R
6HR MIN TEMP:  60; 6HR MAX TEMP:  71;

WICHITA MCCONL PTCLDY    61  26  26 NW10      30.16R
WINFIELD       CLEAR     58  34  40 N9        30.17R
6HR MIN TEMP:  58; 6HR MAX TEMP:  72;

$$

KSZ007>012-019>026-033>040-048>060-102>105-240100-
NORTHEAST KANSAS

CITY           SKY/WX    TMP DP  RH WIND       PRES   REMARKS
CONCORDIA      CLEAR     58  25  28 NW17G28   30.17R
6HR MIN TEMP:  58; 6HR MAX TEMP:  67;

EMPORIA        MOCLDY    61  30  31 NW14G24   30.10R
6HR MIN TEMP:  60; 6HR MAX TEMP:  69; 6HR PCP: TRACE;

LAWRENCE       PTCLDY    61  31  32 NW21      30.04R
6HR MIN TEMP:  61; 6HR MAX TEMP:  68;

MANHATTAN      CLEAR     61  29  29 VRB7      30.12R
6HR MIN TEMP:  61; 6HR MAX TEMP:  69;

MARYSVILLE     PTCLDY    59  30  33 NW29G36   30.11R
OLATHE IND     CLEAR     60  32  34 NW12      30.03R
6HR MIN TEMP:  60; 6HR MAX TEMP:  68;

OLATHE EXE     MOCLDY    60  30  32 NW14G25   30.02R
6HR MIN TEMP:  60; 6HR MAX TEMP:  66;

SALINA         PTCLDY    63  25  23 NW22G30   30.17R
6HR MIN TEMP:  63; 6HR MAX TEMP:  71;

TOPEKA BILLARD PTCLDY    60  32  34 NW10      30.06R
6HR MIN TEMP:  59; 6HR MAX TEMP:  68;

TOPEKA FORBES  PTCLDY    62  29  28 NW24G36   30.06R
6HR MIN TEMP:  62; 6HR MAX TEMP:  69;

$$



USA.gov is the U.S. government's official web portal to all federal, state and local government web resources and services.